Probability
29 26 68 61 65 65 65 61 61 65 58 61 58 58 48 61 52 58 61 55 61 61 71 74 74 74 74 71 68 71 68 61 61 68 71 61 55 71 84 81 84 74 77
13 13 65 61 58 55 55 52 52 52 55 48 45 42 35 39 45 45 48 52 52 52 55 61 65 61 65 61 65 68 65 61 61 68 65 68 61 71 74 74 77 74 77
10 13 45 55 55 45 45 35 39 39 39 39 39 39 35 35 45 48 48 48 45 45 48 52 52 52 55 55 55 48 52 58 65 61 74 58 61 68 65 61 65 68 71
6 13 19 48 39 39 32 26 23 26 23 26 16 19 19 16 19 26 19 29 32 42 39 39 42 42 48 48 58 55 45 48 58 65 55 52 45 65 65 61 58 58 71
10 10 29 45 42 35 29 23 19 13 16 16 16 13 13 16 16 10 16 19 23 26 23 29 32 35 39 39 35 42 48 48 55 65 55 48 48 61 58 65 55 52 58
10 13 26 39 35 32 26 19 13 10 10 10 13 13 13 13 10 6 10 13 19 19 19 16 26 29 29 29 32 35 35 45 42 39 48 55 48 52 55 58 52 52 61
6 6 13 32 29 23 19 16 16 10 10 10 10 10 6 6 10 10 6 10 10 13 10 10 13 13 19 23 23 26 32 32 32 32 48 52 52 55 45 48 48 52 52
3 6 13 26 26 19 13 13 13 13 6 6 10 10 6 6 3 0 0 3 3 3 3 6 10 10 10 10 10 10 16 23 19 13 35 32 58 52 39 45 48 39 45
3 3 3 3 6 13 13 13 10 10 10 10 6 6 6 0 0 0 3 3 3 3 6 6 10 6 6 10 13 19 23 32 13 10 19 32 58 48 45 42 45 42 48
3 3 3 3 3 3 3 10 13 6 6 6 6 3 3 3 0 0 0 3 3 3 3 3 6 3 3 10 13 13 32 23 10 10 19 39 58 45 39 29 35 39 45
3 3 0 3 3 0 0 3 6 6 6 3 3 6 3 0 0 0 0 0 0 0 0 0 0 0 6 6 16 16 19 10 6 10 16 52 52 48 32 29 32 32 35
3 3 0 0 0 0 0 0 0 0 0 0 0 0 0 0 0 0 0 0 0 0 0 0 0 3 3 6 6 13 3 6 10 6 19 55 45 42 39 39 42 35 35
3 0 0 0 0 0 0 0 0 0 0 0 0 0 0 0 0 0 0 0 0 0 0 0 3 3 6 6 3 6 3 6 6 6 23 55 42 32 39 42 45 42 32
0 0 3 0 0 0 0 0 0 0 0 0 0 0 0 0 0 0 0 0 0 0 0 0 0 0 0 0 6 0 0 6 3 6 16 45 42 29 35 35 45 48 45
0 0 0 0 0 0 0 0 0 0 0 0 0 0 0 0 0 0 0 0 0 0 0 0 0 0 0 0 0 0 3 3 6 10 10 35 29 23 23 35 35 52 48
0 0 0 0 0 0 0 0 0 0 0 0 0 0 0 0 0 0 0 0 0 0 0 0 0 0 0 0 0 0 0 3 0 3 6 6 29 26 23 32 39 35 42
0 0 0 0 0 0 0 0 0 0 0 0 0 0 0 0 0 0 0 0 0 0 0 0 0 0 0 0 0 0 0 3 0 0 0 6 6 23 42 26 32 39 35
0 0 0 0 0 0 0 3 0 0 0 0 0 0 0 0 0 0 0 0 0 0 0 0 0 0 0 0 0 0 0 0 0 0 0 6 6 6 23 32 35 42 26
0 0 0 0 0 0 3 3 3 0 0 0 0 0 0 0 0 0 0 0 0 0 0 0 0 0 0 0 0 0 0 0 0 0 0 6 6 6 10 19 26 35 32
0 0 0 0 3 3 3 3 3 0 0 0 0 0 0 0 0 0 0 0 0 0 0 0 0 0 0 0 0 0 0 0 0 0 0 3 10 10 6 6 6 10 19
0 0 0 0 3 3 3 3 3 3 0 0 0 0 0 0 0 0 0 0 0 0 0 0 0 0 0 0 0 0 0 0 0 3 3 3 6 6 3 3 6 6 10
0 0 3 3 3 3 3 0 3 3 0 0 0 0 0 0 0 0 0 0 0 0 0 0 0 0 0 0 0 0 0 0 0 0 0 0 3 3 0 3 3 3 3
0 0 0 3 3 0 0 0 0 0 0 0 0 0 0 0 0 0 0 0 0 0 0 0 0 0 0 0 3 0 0 0 0 0 0 0 0 0 0 3 0 3 6
0 0 0 0 0 0 0 0 0 0 0 0 0 0 0 0 0 0 0 0 0 0 0 0 0 0 0 0 0 0 0 0 0 0 0 0 0 0 3 6 3 3 3
0 0 0 0 0 0 0 0 0 0 0 0 0 0 0 0 0 0 0 0 0 0 0 0 3 3 0 0 0 0 0 0 0 0 0 0 0 0 3 3 6 6 3
0 0 0 0 0 0 0 0 0 0 0 0 0 0 0 0 0 0 0 0 0 0 0 0 3 0 0 0 0 0 0 0 0 0 0 0 0 0 0 3 6 6 6
Height
5883 5883 5884 5884 5884 5884 5884 5884 5885 5885 5885 5885 5885 5885 5884 5884 5884 5884 5883 5883 5883 5883 5883 5883 5883 5882 5883 5883 5883 5884 5884 5884 5885 5885 5886 5886 5886 5887 5888 5889 5890 5891 5892
5883 5883 5884 5884 5884 5884 5884 5885 5885 5885 5885 5885 5885 5885 5885 5884 5884 5883 5883 5883 5882 5882 5882 5882 5882 5882 5882 5882 5882 5883 5883 5883 5884 5884 5885 5885 5885 5885 5887 5888 5889 5890 5891
5882 5883 5884 5884 5884 5884 5885 5885 5885 5885 5885 5885 5885 5885 5884 5884 5883 5883 5883 5882 5882 5881 5881 5881 5881 5881 5881 5881 5881 5882 5882 5882 5883 5883 5884 5884 5885 5885 5886 5887 5888 5889 5890
5882 5883 5884 5884 5884 5884 5885 5885 5885 5885 5885 5885 5885 5884 5884 5883 5883 5882 5882 5881 5881 5881 5880 5880 5880 5880 5880 5880 5880 5881 5881 5881 5882 5882 5883 5883 5884 5884 5885 5886 5887 5888 5889
5882 5883 5884 5884 5884 5885 5885 5885 5885 5885 5885 5885 5885 5884 5883 5883 5882 5881 5881 5880 5880 5880 5879 5879 5879 5879 5879 5879 5879 5879 5880 5880 5880 5881 5881 5882 5883 5883 5884 5885 5886 5887 5888
5882 5883 5884 5884 5884 5885 5885 5885 5885 5885 5885 5885 5884 5884 5883 5882 5882 5881 5880 5879 5879 5879 5878 5878 5878 5878 5878 5878 5878 5878 5878 5879 5879 5879 5880 5881 5881 5882 5883 5884 5885 5886 5887
5882 5883 5883 5884 5884 5885 5885 5885 5885 5885 5885 5885 5884 5883 5883 5882 5881 5880 5879 5879 5878 5878 5877 5877 5876 5876 5876 5876 5876 5877 5877 5877 5878 5878 5879 5879 5880 5881 5882 5883 5884 5885 5885
5882 5882 5883 5884 5884 5885 5885 5885 5885 5885 5885 5884 5884 5883 5882 5881 5880 5879 5878 5878 5877 5876 5876 5875 5875 5875 5875 5875 5875 5875 5875 5876 5876 5877 5877 5878 5878 5879 5880 5881 5882 5883 5884
5881 5882 5883 5884 5884 5884 5885 5885 5885 5885 5884 5884 5883 5883 5882 5880 5879 5878 5877 5876 5876 5875 5874 5873 5873 5873 5873 5873 5873 5873 5873 5874 5874 5875 5875 5876 5877 5877 5879 5880 5881 5882 5883
5881 5882 5883 5883 5884 5884 5884 5885 5885 5884 5884 5884 5883 5882 5881 5880 5879 5877 5876 5875 5874 5874 5873 5872 5872 5871 5871 5871 5871 5871 5872 5872 5873 5873 5874 5874 5875 5876 5877 5878 5880 5881 5882
5880 5881 5882 5883 5883 5884 5884 5884 5884 5884 5883 5883 5882 5881 5880 5879 5878 5877 5876 5874 5873 5872 5872 5871 5870 5870 5870 5869 5870 5870 5870 5870 5871 5871 5872 5872 5873 5874 5876 5877 5878 5880 5881
5879 5881 5882 5882 5883 5883 5883 5883 5884 5883 5883 5883 5882 5881 5880 5878 5877 5876 5875 5873 5872 5871 5870 5869 5869 5868 5868 5868 5868 5868 5868 5868 5869 5870 5870 5870 5871 5872 5874 5876 5877 5878 5880
5879 5880 5881 5882 5882 5883 5883 5883 5883 5883 5882 5882 5881 5880 5879 5877 5876 5875 5874 5873 5871 5870 5869 5868 5867 5866 5866 5866 5866 5866 5866 5867 5867 5868 5869 5869 5870 5871 5872 5874 5875 5877 5878
5878 5880 5880 5881 5882 5882 5882 5883 5882 5882 5882 5881 5880 5879 5878 5877 5875 5874 5873 5872 5870 5869 5868 5866 5865 5865 5864 5864 5864 5864 5864 5865 5865 5866 5867 5868 5868 5869 5871 5872 5874 5875 5877
5877 5879 5880 5880 5881 5882 5882 5882 5882 5882 5881 5880 5879 5879 5878 5876 5875 5874 5872 5870 5869 5867 5866 5865 5863 5863 5862 5862 5862 5862 5862 5863 5863 5864 5865 5866 5867 5868 5869 5870 5872 5874 5875
5877 5878 5879 5880 5881 5881 5881 5881 5881 5881 5880 5880 5879 5878 5877 5876 5874 5873 5871 5870 5868 5866 5865 5863 5862 5861 5860 5860 5860 5860 5860 5861 5861 5862 5863 5864 5865 5866 5867 5869 5870 5872 5874
5876 5877 5878 5879 5880 5880 5881 5881 5881 5880 5880 5879 5879 5878 5876 5875 5874 5872 5871 5869 5867 5865 5864 5862 5860 5859 5859 5858 5858 5858 5858 5858 5859 5860 5861 5862 5863 5865 5866 5867 5869 5870 5872
5876 5877 5878 5879 5879 5880 5880 5880 5880 5880 5880 5879 5878 5877 5876 5875 5873 5872 5870 5868 5866 5864 5863 5861 5859 5858 5857 5857 5857 5856 5856 5857 5857 5858 5859 5860 5861 5863 5864 5866 5867 5869 5870
5875 5876 5877 5878 5879 5879 5880 5880 5880 5880 5879 5879 5878 5877 5876 5875 5873 5871 5870 5868 5866 5864 5862 5860 5859 5857 5856 5856 5855 5855 5855 5855 5855 5856 5857 5858 5860 5861 5862 5864 5865 5867 5869
5875 5876 5877 5878 5878 5879 5879 5879 5880 5879 5879 5878 5878 5877 5876 5874 5873 5871 5869 5867 5865 5864 5862 5860 5858 5857 5856 5855 5854 5854 5854 5854 5854 5855 5856 5857 5858 5859 5860 5862 5863 5865 5867
5874 5875 5876 5877 5877 5878 5878 5879 5879 5879 5879 5878 5878 5877 5875 5874 5872 5871 5869 5867 5865 5864 5861 5859 5858 5856 5855 5854 5853 5853 5853 5853 5853 5853 5854 5855 5856 5857 5859 5860 5862 5863 5865
5874 5875 5875 5876 5877 5877 5877 5878 5878 5879 5878 5878 5877 5876 5875 5874 5872 5871 5869 5867 5866 5864 5862 5860 5858 5856 5854 5853 5853 5853 5852 5853 5852 5852 5853 5853 5854 5855 5857 5858 5860 5861 5863
5873 5874 5874 5875 5876 5876 5877 5877 5878 5878 5878 5878 5877 5876 5875 5873 5872 5871 5869 5868 5866 5864 5862 5860 5858 5856 5854 5853 5853 5852 5852 5852 5852 5852 5852 5853 5853 5854 5855 5856 5858 5859 5860
5872 5873 5874 5874 5875 5876 5876 5877 5877 5877 5877 5877 5876 5875 5874 5873 5872 5871 5869 5868 5866 5864 5862 5860 5858 5856 5855 5854 5853 5852 5852 5851 5851 5851 5852 5852 5852 5853 5854 5855 5856 5857 5858
5871 5872 5873 5874 5874 5875 5875 5876 5876 5877 5876 5876 5875 5875 5874 5873 5872 5871 5869 5868 5866 5864 5862 5860 5859 5857 5855 5854 5853 5852 5852 5851 5851 5851 5851 5851 5851 5851 5852 5853 5854 5855 5856
5870 5871 5872 5873 5874 5874 5874 5875 5875 5875 5875 5875 5875 5874 5873 5872 5871 5870 5869 5867 5866 5864 5862 5861 5859 5857 5856 5855 5853 5852 5852 5851 5851 5850 5850 5850 5850 5850 5850 5851 5851 5852 5853
Wind_Speed
3 3 3 1 1 2 1 2 2 1 1 2 2 3 3 3 3 3 3 3 3 3 3 4 4 4 4 4 5 5 5 5 6 6 6 6 6 6 6 6 6 6 6
4 3 2 1 1 1 2 2 1 1 1 2 3 3 3 3 3 4 3 3 4 3 3 4 4 4 5 5 5 6 6 6 6 6 6 7 6 7 7 7 7 7 7
4 4 3 1 1 1 1 2 1 1 2 2 3 4 3 3 4 4 4 4 4 4 4 4 4 4 4 4 5 5 6 6 6 6 6 7 7 7 7 8 8 8 8
4 4 3 1 0 1 2 2 1 1 2 3 4 4 4 4 5 4 5 5 4 5 5 5 4 4 4 4 5 6 6 6 6 6 7 7 8 8 8 8 8 9 9
5 4 3 2 1 1 1 1 1 2 3 4 5 5 5 5 5 5 5 5 5 5 5 5 5 5 5 5 5 6 6 7 7 7 7 8 8 8 8 9 9 9 9
5 4 3 2 1 0 0 1 1 2 4 5 5 5 5 6 7 6 5 6 6 6 6 6 6 6 6 6 6 6 7 7 7 8 8 8 8 8 8 9 9 9 9
6 5 4 2 1 1 1 1 2 3 4 5 5 6 6 7 7 6 6 6 6 6 7 6 7 7 7 7 6 7 7 7 7 8 8 9 9 9 10 9 10 9 9
7 5 4 2 1 0 0 1 2 3 4 5 6 7 7 7 7 7 7 7 7 7 7 7 7 7 7 7 7 7 7 7 7 8 8 9 9 9 9 10 10 10 9
7 5 4 3 1 1 1 2 2 3 4 5 6 7 7 8 8 8 8 8 7 7 7 7 6 7 7 7 7 7 8 7 7 8 8 9 9 9 9 9 10 9 9
6 5 4 3 2 2 2 2 3 3 4 5 5 6 7 8 8 9 9 8 8 7 7 6 6 6 7 7 7 7 8 8 8 8 8 9 9 10 10 9 10 10 9
6 5 3 2 1 2 3 3 3 3 4 5 6 7 8 8 9 9 9 8 8 8 7 7 7 7 7 7 8 8 8 8 8 8 8 9 10 10 10 10 10 10 10
5 4 3 3 3 3 3 4 4 4 5 6 7 8 8 8 9 9 9 8 8 8 8 7 7 7 7 8 8 8 8 8 8 8 8 8 9 10 11 11 11 10 10
5 4 3 4 3 3 3 4 4 4 5 6 7 8 8 8 8 9 9 8 8 8 8 8 8 8 8 8 8 8 8 8 8 8 9 9 9 9 10 11 11 11 11
6 5 4 3 3 3 3 3 4 5 6 6 8 8 8 8 8 9 9 9 9 9 9 9 8 8 8 8 8 8 8 8 8 8 8 9 9 10 10 11 11 11 11
6 5 4 3 3 3 3 3 4 5 6 6 7 8 8 8 8 9 9 9 9 9 9 9 9 8 8 9 8 8 8 8 8 8 8 9 9 9 10 11 11 12 11
5 4 4 3 2 3 2 3 4 5 5 6 6 7 8 8 8 9 9 10 10 10 10 10 9 8 8 8 8 8 8 8 8 8 9 9 9 9 10 11 12 12 11
5 4 3 3 3 2 2 3 3 4 5 5 6 7 8 9 9 9 10 10 10 11 11 10 9 8 7 7 7 7 8 8 8 8 9 9 10 9 10 10 11 11 11
4 4 2 2 2 2 2 3 4 4 4 5 6 7 8 9 9 10 10 11 11 11 11 10 9 7 7 6 6 6 7 7 7 8 8 9 9 10 10 10 11 11 11
4 3 3 3 3 2 2 3 3 3 4 5 6 7 8 9 9 10 11 11 11 11 11 10 9 8 7 6 6 6 6 6 6 7 7 8 9 10 10 10 10 11 11
4 3 3 3 3 2 2 3 3 3 4 5 6 7 8 9 9 10 11 11 11 11 11 10 9 8 7 6 6 6 6 5 5 6 7 7 8 9 10 10 10 11 11
4 3 3 3 3 3 3 3 3 3 4 5 6 7 8 9 10 10 11 11 11 12 11 11 10 9 8 7 6 5 5 4 5 5 6 6 7 8 9 9 10 11 12
5 5 5 4 3 3 3 3 3 3 4 4 6 7 8 8 9 10 10 11 11 11 12 11 10 9 8 7 6 6 5 4 4 5 5 6 7 7 9 9 10 10 12
5 5 4 4 4 4 3 3 3 3 4 5 6 7 7 8 9 10 10 10 11 11 12 12 11 10 9 7 6 6 5 5 4 4 5 6 6 7 8 9 9 10 11
6 5 5 5 4 4 3 3 3 3 4 5 5 6 7 8 8 9 10 10 11 11 11 11 11 10 9 8 7 6 6 5 5 4 4 5 6 7 8 9 9 10 11
6 6 6 5 4 4 4 4 4 4 4 5 5 6 7 7 8 9 9 10 11 11 11 11 11 10 9 9 8 7 6 6 5 5 5 5 6 7 8 9 10 10 11
7 7 7 6 5 4 5 4 5 4 4 5 5 6 6 7 8 8 9 10 11 11 11 11 11 10 9 9 8 8 7 6 6 6 6 6 7 7 8 9 10 11 11
Wind_Direction
229 223 212 214 127 97 105 126 108 83 55 54 34 19 12 350 340 335 329 332 328 323 312 302 285 272 270 262 244 237 238 241 244 244 241 241 237 229 221 218 208 203 203
222 216 205 217 159 67 78 96 80 43 50 42 26 8 356 344 333 333 328 324 316 316 311 304 293 282 270 266 252 242 239 240 244 246 244 242 238 228 221 220 214 213 209
210 210 207 198 231 18 60 80 59 44 35 24 8 359 353 348 337 334 327 326 325 324 316 305 298 284 270 266 258 250 245 244 245 245 242 239 234 227 224 224 221 218 214
202 201 208 217 293 34 53 62 43 35 29 7 356 354 351 344 333 327 330 328 325 322 317 311 302 289 278 273 263 258 254 251 249 245 241 240 236 229 227 228 227 225 221
203 195 200 218 216 54 51 34 30 14 8 360 354 351 353 346 338 329 331 330 325 321 318 312 305 297 288 281 272 264 261 261 256 248 244 243 242 235 232 231 230 229 227
207 201 199 195 167 91 58 359 358 354 358 359 354 352 350 346 341 336 341 333 326 322 319 311 301 297 293 285 276 268 264 261 259 252 246 246 244 238 235 234 232 231 232
212 207 198 178 153 124 65 31 6 356 354 349 346 349 347 345 342 337 336 331 327 322 316 308 300 296 292 283 278 271 267 267 259 256 250 246 246 241 238 236 233 233 235
210 208 206 203 189 172 60 6 342 344 343 341 344 349 349 346 344 340 336 329 326 324 319 311 301 294 294 287 277 272 269 271 262 257 253 248 246 243 242 239 235 235 238
211 212 213 214 225 256 271 298 317 325 335 341 344 351 349 348 346 346 341 331 328 326 320 311 301 293 291 288 280 275 271 270 264 258 254 250 247 246 243 240 236 233 234
213 211 216 228 254 269 283 296 306 314 332 345 345 345 345 344 345 344 340 334 331 330 325 317 303 295 290 288 285 280 273 268 263 259 256 252 249 244 243 242 236 232 233
212 215 223 227 270 288 286 288 302 312 326 333 341 341 344 345 343 341 338 333 329 328 325 320 309 301 293 288 286 282 275 270 263 259 256 254 249 244 240 239 236 234 235
210 215 229 240 263 290 300 300 308 322 332 337 339 343 345 345 345 342 339 337 336 332 327 319 309 303 294 289 285 279 273 270 264 259 256 253 247 241 239 238 237 236 234
219 222 241 255 268 294 310 309 313 327 336 339 341 344 346 347 346 344 343 341 337 333 327 320 313 305 299 292 286 278 273 271 267 259 255 250 244 240 239 238 238 238 236
228 234 247 259 281 298 303 305 316 326 336 340 342 343 347 349 348 347 345 340 339 336 329 321 313 305 299 294 287 280 275 272 269 259 255 251 247 243 241 238 239 238 237
223 228 238 258 277 293 297 299 313 324 334 344 348 347 348 352 352 350 348 344 339 338 333 326 318 309 303 299 289 279 275 270 266 261 255 252 249 245 241 237 237 237 235
216 224 233 246 268 288 298 304 316 324 333 345 347 349 351 353 353 351 350 347 343 341 337 332 324 315 309 302 293 283 275 270 264 260 253 250 249 247 244 240 238 237 235
201 209 225 247 269 286 298 321 327 328 336 346 349 351 354 354 355 353 354 353 349 345 341 335 329 323 317 311 304 292 279 273 266 258 252 248 247 246 245 243 240 238 234
198 206 233 252 262 275 297 313 328 328 339 347 351 354 356 356 355 356 359 357 354 350 347 344 338 331 323 318 313 304 292 280 269 260 254 247 245 245 245 245 240 237 234
204 211 224 240 252 259 290 309 322 327 341 351 355 356 358 359 358 359 1 360 358 356 353 350 344 338 331 325 318 310 302 289 276 264 257 250 246 245 244 245 241 238 235
212 215 224 238 248 257 284 299 307 322 341 350 353 356 358 360 360 1 1 1 360 358 357 355 351 346 341 333 324 317 309 299 282 269 260 253 247 245 245 245 242 237 235
211 218 228 237 252 261 269 280 299 314 332 345 351 354 358 1 2 1 1 1 1 360 0 359 356 353 349 342 336 329 320 307 294 281 271 255 249 245 244 244 242 236 236
221 227 234 239 253 261 265 277 294 309 326 338 348 351 355 358 1 1 2 2 3 3 3 2 0 359 357 353 348 340 331 320 307 287 273 262 257 252 247 247 244 239 238
218 226 230 233 245 259 259 268 287 304 320 330 340 346 352 356 358 360 1 0 1 2 3 3 2 2 2 360 356 350 345 335 321 302 277 273 265 259 252 248 249 247 245
221 227 230 234 241 247 257 268 280 297 313 324 335 343 351 352 351 353 357 358 360 0 360 1 2 4 4 1 358 353 347 341 330 317 297 283 275 268 260 252 251 251 252
221 227 234 236 239 248 257 262 274 290 307 318 328 338 345 348 349 349 352 355 358 358 357 359 1 2 2 1 358 355 350 342 335 325 313 298 286 278 269 262 257 255 255
222 228 229 229 240 252 257 262 275 286 301 314 323 331 338 344 346 348 348 351 355 356 356 356 358 358 358 356 355 354 350 342 335 330 320 308 296 286 277 270 263 260 259